TimeCDT,TemperatureF,Dew PointF,Humidity,Sea Level PressureIn,VisibilityMPH,Wind Direction,Wind SpeedMPH,Gust SpeedMPH,PrecipitationIn,Events,Conditions,WindDirDegrees,DateUTC
12:53 AM,64.9,63.0,93,30.16,6.0,Calm,Calm,-,N/A,,Clear,0,2012-10-05 05:53:00
1:53 AM,64.9,62.1,90,30.15,7.0,Calm,Calm,-,N/A,,Clear,0,2012-10-05 06:53:00
3:40 AM,62.6,60.8,94,30.13,6.0,Calm,Calm,-,N/A,,Partly Cloudy,0,2012-10-05 08:40:00
3:53 AM,64.0,62.1,93,30.13,5.0,Calm,Calm,-,N/A,,Scattered Clouds,0,2012-10-05 08:53:00
4:12 AM,62.6,60.8,94,30.13,5.0,Calm,Calm,-,N/A,,Mostly Cloudy,0,2012-10-05 09:12:00
4:39 AM,64.4,62.6,94,30.13,4.0,Calm,Calm,-,N/A,,Scattered Clouds,0,2012-10-05 09:39:00
4:53 AM,64.9,63.0,93,30.13,4.0,Calm,Calm,-,N/A,,Clear,0,2012-10-05 09:53:00
5:11 AM,64.4,62.6,94,30.14,5.0,Calm,Calm,-,N/A,,Scattered Clouds,0,2012-10-05 10:11:00
5:19 AM,64.4,62.6,94,30.14,2.5,Calm,Calm,-,N/A,,Mostly Cloudy,0,2012-10-05 10:19:00
5:22 AM,64.4,62.6,94,30.13,1.0,Calm,Calm,-,N/A,,Mist,0,2012-10-05 10:22:00
5:25 AM,64.4,62.6,94,30.13,0.5,Calm,Calm,-,N/A,Fog,Fog,0,2012-10-05 10:25:00
5:51 AM,66.2,64.4,94,30.14,0.2,Calm,Calm,-,N/A,Fog,Fog,0,2012-10-05 10:51:00
5:53 AM,66.0,64.9,96,30.14,0.2,Calm,Calm,-,N/A,Fog,Fog,0,2012-10-05 10:53:00
6:31 AM,66.2,64.4,94,30.14,1.0,Calm,Calm,-,N/A,,Mist,0,2012-10-05 11:31:00
6:38 AM,66.2,64.4,94,30.14,1.5,Calm,Calm,-,N/A,,Overcast,0,2012-10-05 11:38:00
6:53 AM,64.9,63.0,93,30.14,0.8,Calm,Calm,-,N/A,,Overcast,0,2012-10-05 11:53:00
7:01 AM,64.4,62.6,94,30.15,0.2,Calm,Calm,-,N/A,Fog,Fog,0,2012-10-05 12:01:00
7:53 AM,66.0,64.9,96,30.14,0.5,NNE,3.5,-,N/A,Fog,Fog,30,2012-10-05 12:53:00
8:43 AM,66.2,64.4,94,30.16,1.0,Calm,Calm,-,N/A,,Mist,0,2012-10-05 13:43:00
8:50 AM,66.2,66.2,100,30.16,1.5,North,3.5,-,N/A,,Overcast,10,2012-10-05 13:50:00
8:53 AM,68.0,66.0,93,30.15,1.8,Calm,Calm,-,N/A,,Overcast,0,2012-10-05 13:53:00
9:01 AM,68.0,66.2,94,30.16,2.5,Variable,3.5,-,N/A,,Overcast,0,2012-10-05 14:01:00
9:12 AM,68.0,66.2,94,30.16,3.0,Calm,Calm,-,N/A,,Overcast,0,2012-10-05 14:12:00
9:53 AM,71.1,69.1,93,30.15,5.0,ENE,5.8,-,N/A,,Overcast,70,2012-10-05 14:53:00
10:46 AM,73.4,69.8,88,30.15,5.0,ENE,3.5,-,N/A,,Overcast,70,2012-10-05 15:46:00
10:53 AM,73.0,70.0,90,30.15,6.0,ENE,3.5,-,N/A,,Overcast,70,2012-10-05 15:53:00
11:30 AM,77.0,69.8,78,30.14,9.0,Variable,4.6,-,N/A,,Mostly Cloudy,0,2012-10-05 16:30:00
11:42 AM,77.0,71.6,83,30.14,10.0,NE,4.6,-,N/A,,Scattered Clouds,50,2012-10-05 16:42:00
12:15 PM,80.6,71.6,74,30.13,10.0,Calm,Calm,-,N/A,,Mostly Cloudy,0,2012-10-05 17:15:00
12:25 PM,80.6,71.6,74,30.13,10.0,Calm,Calm,-,N/A,,Scattered Clouds,0,2012-10-05 17:25:00
12:53 PM,81.0,71.1,72,30.10,10.0,NE,5.8,-,N/A,,Mostly Cloudy,50,2012-10-05 17:53:00
1:53 PM,82.9,71.1,67,30.07,10.0,Calm,Calm,-,N/A,,Overcast,0,2012-10-05 18:53:00
2:53 PM,84.9,71.1,63,30.04,10.0,ESE,5.8,-,N/A,,Scattered Clouds,110,2012-10-05 19:53:00
3:12 PM,82.4,69.8,66,30.03,10.0,East,3.5,-,N/A,,Mostly Cloudy,80,2012-10-05 20:12:00
3:19 PM,84.2,71.6,66,30.03,10.0,Variable,3.5,-,N/A,,Scattered Clouds,0,2012-10-05 20:19:00
3:53 PM,86.0,71.1,61,30.01,10.0,Variable,3.5,-,N/A,,Scattered Clouds,0,2012-10-05 20:53:00
4:53 PM,82.0,71.1,69,30.01,10.0,East,3.5,-,N/A,,Mostly Cloudy,100,2012-10-05 21:53:00
5:53 PM,81.0,70.0,69,30.01,10.0,East,3.5,-,N/A,,Scattered Clouds,90,2012-10-05 22:53:00
6:53 PM,73.9,70.0,87,30.01,10.0,Calm,Calm,-,N/A,,Clear,0,2012-10-05 23:53:00
7:53 PM,73.0,70.0,90,30.03,10.0,Calm,Calm,-,N/A,,Clear,0,2012-10-06 00:53:00
8:53 PM,71.1,69.1,93,30.04,9.0,Calm,Calm,-,N/A,,Scattered Clouds,0,2012-10-06 01:53:00
9:53 PM,71.1,69.1,93,30.04,8.0,Calm,Calm,-,N/A,,Clear,0,2012-10-06 02:53:00
10:53 PM,69.1,66.9,93,30.04,5.0,Calm,Calm,-,N/A,,Partly Cloudy,0,2012-10-06 03:53:00
11:53 PM,69.1,66.9,93,30.04,5.0,Calm,Calm,-,N/A,,Partly Cloudy,0,2012-10-06 04:53:00